| time (UTC) | temp F | wind direction | speed MPH | gust MPH | rain 1hr in | rain 24hr in | rain mn in | humidity % | barometer mb |
| 20260905023116 | 55 | 218 | 0.0 | 0.0 | 0.00 | 0.04 | 0.04 | 74 | 1016.5 |
| 20260905021537 | 57 | 218 | 0.0 | 2.0 | 0.00 | 0.04 | 0.04 | 68 | 1016.4 |
| 20260905020038 | 58 | 226 | 2.0 | 5.0 | 0.00 | 0.04 | 0.04 | 60 | 1016.2 |
| 20260905014537 | 59 | 141 | 0.0 | 9.0 | 0.00 | 0.05 | 0.04 | 54 | 1016.2 |
| 20260905013034 | 60 | 155 | 3.0 | 9.0 | 0.00 | 0.05 | 0.04 | 55 | 1016.3 |
| 20260905011533 | 62 | 69 | 1.0 | 10.0 | 0.00 | 0.05 | 0.04 | 53 | 1016.0 |
| 20260905010035 | 61 | 320 | 1.0 | 5.0 | 0.00 | 0.05 | 0.04 | 55 | 1015.9 |
| 20260905004530 | 63 | 216 | 0.0 | 4.0 | 0.00 | 0.22 | 0.04 | 56 | 1015.8 |
| 20260905003029 | 63 | 182 | 2.0 | 8.0 | 0.00 | 0.22 | 0.04 | 52 | 1015.7 |
| 20260905001526 | 63 | 269 | 4.0 | 14.0 | 0.00 | 0.22 | 0.04 | 51 | 1015.6 |
| 20260905000022 | 63 | 220 | 4.0 | 11.0 | 0.00 | 0.22 | 0.04 | 53 | 1015.6 |
| 20260904234526 | 62 | 283 | 5.0 | 11.0 | 0.00 | 0.60 | 0.04 | 56 | 1015.5 |
| 20260904233016 | 63 | 259 | 2.0 | 12.0 | 0.00 | 0.60 | 0.04 | 53 | 1015.5 |
| 20260904231516 | 63 | 237 | 4.0 | 9.0 | 0.00 | 0.60 | 0.04 | 53 | 1015.3 |
| 20260904230014 | 65 | 253 | 3.0 | 14.0 | 0.00 | 0.60 | 0.04 | 49 | 1015.1 |
| 20260904224515 | 67 | 219 | 2.0 | 10.0 | 0.00 | 0.60 | 0.04 | 51 | 1015.0 |
| 20260904223007 | 65 | 235 | 4.0 | 12.0 | 0.00 | 0.60 | 0.04 | 53 | 1015.0 |
| 20260904221505 | 64 | 224 | 6.0 | 10.0 | 0.00 | 0.60 | 0.04 | 54 | 1015.0 |
| 20260904220001 | 62 | 215 | 3.0 | 10.0 | 0.00 | 0.60 | 0.04 | 58 | 1015.2 |
| 20260904214600 | 62 | 255 | 2.0 | 8.0 | 0.00 | 0.60 | 0.04 | 59 | 1015.3 |
| 20260904213059 | 63 | 211 | 1.0 | 7.0 | 0.00 | 0.60 | 0.04 | 58 | 1015.2 |
| 20260904211600 | 64 | 228 | 1.0 | 8.0 | 0.00 | 0.60 | 0.04 | 57 | 1015.2 |
| 20260904210107 | 65 | 224 | 4.0 | 9.0 | 0.00 | 0.60 | 0.04 | 55 | 1015.0 |
| 20260904204552 | 62 | 227 | 3.0 | 8.0 | 0.00 | 0.60 | 0.04 | 68 | 1014.8 |
| 20260904203050 | 61 | 204 | 0.0 | 3.0 | 0.00 | 0.60 | 0.04 | 77 | 1014.9 |
| 20260904201551 | 61 | 195 | 0.0 | 3.0 | 0.00 | 0.60 | 0.04 | 74 | 1014.8 |
| 20260904200049 | 62 | 215 | 0.0 | 0.0 | 0.00 | 0.60 | 0.04 | 75 | 1014.5 |
| 20260904194555 | 62 | 253 | 0.0 | 4.0 | 0.00 | 0.60 | 0.04 | 74 | 1014.5 |
| 20260904193047 | 62 | 150 | 0.0 | 3.0 | 0.00 | 0.60 | 0.04 | 74 | 1014.4 |
| 20260904191548 | 62 | 208 | 1.0 | 4.0 | 0.01 | 0.60 | 0.04 | 68 | 1014.4 |
| 20260904190044 | 61 | 206 | 1.0 | 4.0 | 0.01 | 0.60 | 0.04 | 73 | 1014.2 |
| 20260904184546 | 60 | 231 | 1.0 | 5.0 | 0.01 | 0.60 | 0.04 | 68 | 1014.2 |
| 20260904183039 | 59 | 140 | 0.0 | 3.0 | 0.01 | 0.60 | 0.04 | 75 | 1014.2 |
| 20260904181533 | 58 | 125 | 0.0 | 3.0 | 0.00 | 0.59 | 0.03 | 87 | 1014.3 |
| 20260904181503 | 58 | 125 | 1.0 | 3.0 | 0.00 | 0.59 | 0.03 | 88 | 1014.3 |
| 20260904180024 | 56 | 114 | 0.0 | 2.0 | 0.00 | 0.59 | 0.03 | 89 | 1014.3 |
| 20260904174545 | 54 | 106 | 1.0 | 2.0 | 0.00 | 0.59 | 0.03 | 89 | 1014.3 |
| 20260904173016 | 53 | 98 | 1.0 | 2.0 | 0.00 | 0.59 | 0.03 | 90 | 1014.5 |
| 20260904171516 | 52 | 75 | 0.0 | 2.0 | 0.00 | 0.59 | 0.03 | 91 | 1014.5 |
| 20260904170011 | 51 | 66 | 0.0 | 2.0 | 0.00 | 0.59 | 0.03 | 91 | 1014.6 |
| 20260904164506 | 49 | 60 | 0.0 | 2.0 | 0.00 | 0.59 | 0.03 | 91 | 1014.7 |
| 20260904163108 | 48 | 60 | 0.0 | 2.0 | 0.00 | 0.59 | 0.03 | 91 | 1014.8 |
| 20260904161559 | 46 | 38 | 0.0 | 1.0 | 0.00 | 0.59 | 0.03 | 90 | 1014.8 |
| 20260904160057 | 46 | 35 | 0.0 | 1.0 | 0.00 | 0.59 | 0.03 | 90 | 1014.8 |
| 20260904154553 | 45 | 35 | 0.0 | 1.0 | 0.00 | 0.59 | 0.03 | 91 | 1014.8 |
| 20260904153052 | 44 | 35 | 0.0 | 0.0 | 0.00 | 0.59 | 0.03 | 90 | 1014.7 |
| 20260904151549 | 44 | 35 | 0.0 | 0.0 | 0.00 | 0.59 | 0.03 | 91 | 1014.6 |
| 20260904150051 | 44 | 35 | 0.0 | 0.0 | 0.00 | 0.59 | 0.03 | 91 | 1014.5 |
| 20260904144547 | 44 | 35 | 0.0 | 2.0 | 0.00 | 0.59 | 0.03 | 91 | 1014.4 |
| 20260904143046 | 44 | 35 | 0.0 | 3.0 | 0.00 | 0.59 | 0.03 | 91 | 1014.2 |
| 20260904141542 | 44 | 35 | 0.0 | 0.0 | 0.00 | 0.59 | 0.03 | 91 | 1014.1 |
| 20260904140043 | 44 | 35 | 0.0 | 0.0 | 0.00 | 0.59 | 0.03 | 91 | 1013.9 |
| 20260904134546 | 44 | 35 | 0.0 | 0.0 | 0.00 | 0.59 | 0.03 | 91 | 1013.7 |
| 20260904133035 | 45 | 35 | 0.0 | 0.0 | 0.00 | 0.59 | 0.03 | 90 | 1013.5 |
| 20260904131534 | 45 | 35 | 0.0 | 0.0 | 0.00 | 0.59 | 0.03 | 90 | 1013.3 |
| 20260904130032 | 44 | 35 | 0.0 | 1.0 | 0.00 | 0.59 | 0.03 | 90 | 1013.2 |
| 20260904124534 | 45 | 35 | 0.0 | 0.0 | 0.00 | 0.59 | 0.03 | 91 | 1013.0 |
| 20260904123028 | 45 | 35 | 0.0 | 0.0 | 0.00 | 0.59 | 0.03 | 91 | 1012.8 |
| 20260904121525 | 45 | 35 | 0.0 | 0.0 | 0.00 | 0.59 | 0.03 | 91 | 1012.7 |
| 20260904120026 | 46 | 35 | 0.0 | 0.0 | 0.00 | 0.59 | 0.03 | 91 | 1012.5 |
| 20260904114523 | 46 | 24 | 0.0 | 1.0 | 0.00 | 0.59 | 0.03 | 90 | 1012.4 |
| 20260904113021 | 46 | 166 | 0.0 | 3.0 | 0.00 | 0.59 | 0.03 | 90 | 1012.2 |
| 20260904111519 | 46 | 232 | 0.0 | 2.0 | 0.00 | 0.59 | 0.03 | 90 | 1012.0 |
| 20260904110034 | 46 | 232 | 2.0 | 3.0 | 0.01 | 0.59 | 0.03 | 90 | 1012.2 |
| 20260904104518 | 46 | 311 | 0.0 | 0.0 | 0.01 | 0.59 | 0.03 | 90 | 1012.2 |
| 20260904103017 | 46 | 359 | 0.0 | 0.0 | 0.01 | 0.59 | 0.03 | 90 | 1012.0 |
| 20260904101516 | 46 | 170 | 2.0 | 4.0 | 0.01 | 0.59 | 0.03 | 90 | 1011.8 |
| 20260904100012 | 45 | 181 | 0.0 | 0.0 | 0.00 | 0.57 | 0.02 | 90 | 1011.9 |
| 20260904094511 | 46 | 180 | 0.0 | 1.0 | 0.01 | 0.57 | 0.02 | 90 | 1011.4 |
| 20260904093009 | 46 | 180 | 0.0 | 2.0 | 0.02 | 0.57 | 0.02 | 90 | 1011.4 |
| 20260904091513 | 46 | 180 | 0.0 | 0.0 | 0.02 | 0.57 | 0.02 | 90 | 1011.4 |
| 20260904090007 | 45 | 180 | 0.0 | 3.0 | 0.02 | 0.57 | 0.02 | 90 | 1011.6 |
| 20260904084506 | 45 | 179 | 0.0 | 2.0 | 0.01 | 0.56 | 0.01 | 90 | 1011.6 |
| 20260904083003 | 45 | 177 | 0.0 | 0.0 | 0.00 | 0.56 | 0.00 | 91 | 1011.8 |
| 20260904081504 | 46 | 177 | 0.0 | 0.0 | 0.00 | 0.56 | 0.00 | 91 | 1011.6 |
| 20260904074558 | 46 | 177 | 0.0 | 1.0 | 0.00 | 0.56 | 0.00 | 90 | 1011.6 |
| 20260904074509 | 46 | 177 | 0.0 | 1.0 | 0.00 | 0.56 | 0.00 | 90 | 1011.6 |
| 20260904073057 | 46 | 177 | 0.0 | 0.0 | 0.00 | 0.56 | 0.00 | 91 | 1011.6 |
| 20260904071556 | 46 | 177 | 0.0 | 0.0 | 0.00 | 0.56 | 0.00 | 90 | 1011.7 |
| 20260904070056 | 46 | 177 | 0.0 | 0.0 | 0.00 | 0.56 | 0.00 | 90 | 1011.6 |
| 20260904064553 | 46 | 177 | 0.0 | 0.0 | 0.00 | 0.59 | 0.56 | 91 | 1011.6 |
| 20260904063054 | 46 | 177 | 0.0 | 0.0 | 0.00 | 0.59 | 0.56 | 91 | 1011.6 |
| 20260904061554 | 46 | 177 | 0.0 | 0.0 | 0.00 | 0.59 | 0.56 | 91 | 1011.7 |
| 20260904060051 | 46 | 177 | 0.0 | 1.0 | 0.00 | 0.59 | 0.56 | 90 | 1011.5 |
| 20260904054553 | 47 | 177 | 0.0 | 2.0 | 0.00 | 0.59 | 0.56 | 90 | 1011.4 |
| 20260904053047 | 47 | 121 | 0.0 | 1.0 | 0.00 | 0.59 | 0.56 | 91 | 1011.5 |
| 20260904051551 | 47 | 121 | 0.0 | 0.0 | 0.00 | 0.59 | 0.56 | 90 | 1011.5 |
| 20260904050046 | 47 | 122 | 0.0 | 0.0 | 0.00 | 0.59 | 0.56 | 90 | 1011.4 |
| 20260904044546 | 48 | 121 | 0.0 | 0.0 | 0.00 | 0.59 | 0.56 | 90 | 1011.3 |
| 20260904043046 | 48 | 121 | 0.0 | 0.0 | 0.00 | 0.59 | 0.56 | 90 | 1011.3 |
| 20260904041552 | 48 | 121 | 0.0 | 0.0 | 0.00 | 0.59 | 0.56 | 90 | 1011.4 |
| 20260904040043 | 49 | 121 | 0.0 | 0.0 | 0.00 | 0.59 | 0.56 | 90 | 1011.3 |
| 20260904034551 | 49 | 121 | 0.0 | 0.0 | 0.00 | 0.59 | 0.56 | 90 | 1011.3 |
| 20260904033041 | 50 | 121 | 0.0 | 0.0 | 0.00 | 0.59 | 0.56 | 90 | 1011.2 |
| 20260904031544 | 50 | 121 | 0.0 | 1.0 | 0.00 | 0.59 | 0.56 | 90 | 1011.0 |
| 20260904030038 | 50 | 122 | 0.0 | 1.0 | 0.00 | 0.59 | 0.56 | 90 | 1010.9 |
| 20260904024538 | 50 | 121 | 0.0 | 1.0 | 0.01 | 0.60 | 0.56 | 90 | 1010.7 |